Flag for Russia Weather past 2 weeks in Murmansk, Russia

30 °F

Passing clouds.

Feels Like: 30 °F
Forecast: 33 / 42 °F
Wind: 1 mph from North

Location: Murmansk Airport

Current Time: Oct 7, 2015 at 7:56:44 AM

Latest Report: Oct 7, 2015 at 7:00 AM

Visibility: N/A

Pressure: 30.45 "Hg

Humidity: 86%

Dew point: 27 °F

Location of MurmanskLocation

Historic Weather in Murmansk — Graph


Murmansk temperature yesterday

Maximum temperature yesterday: 37 °F (at 12:00 PM)
Minimum temperature yesterday: 32 °F (at 3:30 AM)
Average temperature yesterday: 34 °F

Past Weeks' High & Low Weather Summary

High57 °F (Sep 24, 1:30 PM)94% (Sep 23, 3:30 AM)30.57 "Hg (Sep 23, 3:30 AM)
Low21 °F (Oct 4, 6:30 AM)38% (Sep 30, 3:00 PM)29.09 "Hg (Oct 2, 4:30 PM)
Average41 °F80%29.87 "Hg
* Reported Sep 22 6:00 AM — Oct 7 6:30 AM, Murmansk, Weather by CustomWeather, © 2015

Note: Actual official high and low records may vary slightly from our data, if they occured in-between our weather recording intervals... More about our weather records


Murmansk weather history for previous 24 hours

Time TempWeatherWind HumidityBarometerVisibility
6:30 AM
Wed, Oct 7
32 °FPassing clouds.3 mph87%30.45 "HgN/A
6:00 AM32 °FPassing clouds.1 mph87%30.45 "HgN/A
5:30 AM32 °FPassing clouds.1 mph87%30.45 "HgN/A
5:00 AM32 °FPassing clouds.6 mph87%30.45 "HgN/A
4:00 AM32 °FPassing clouds.No wind87%30.45 "HgN/A
3:30 AM32 °FPassing clouds.3 mph93%30.45 "HgN/A
3:00 AM30 °FPassing clouds.3 mph93%30.45 "HgN/A
2:30 AM30 °FPassing clouds.1 mph93%30.42 "HgN/A
2:00 AM32 °FPassing clouds.3 mph87%30.42 "HgN/A
1:30 AM32 °FPassing clouds.3 mph93%30.42 "HgN/A
1:00 AM32 °FPassing clouds.3 mph87%30.42 "HgN/A
12:30 AM32 °FPassing clouds.3 mph87%30.42 "HgN/A
12:00 AM32 °FPassing clouds.6 mph87%30.42 "HgN/A
11:30 PM
Tue, Oct 6
34 °FPassing clouds.6 mph87%30.42 "HgN/A
11:00 PM32 °FPassing clouds.3 mph93%30.42 "HgN/A
10:30 PM32 °FPassing clouds.3 mph93%30.42 "HgN/A
10:00 PM32 °FPassing clouds.3 mph93%30.42 "HgN/A
9:30 PM32 °FPassing clouds.3 mph93%30.42 "HgN/A
9:00 PM34 °FSnow flurries. Passing clouds.6 mph87%30.42 "HgN/A
8:30 PM34 °FPassing clouds.3 mph87%30.39 "HgN/A
8:00 PM34 °FPassing clouds.3 mph87%30.39 "HgN/A
7:30 PM34 °FPassing clouds.3 mph87%30.39 "HgN/A
7:00 PM34 °FSnow flurries. Passing clouds.6 mph87%30.39 "HgN/A
6:30 PM34 °FPartly sunny.3 mph87%30.39 "HgN/A
6:00 PM34 °FPartly sunny.1 mph87%30.39 "HgN/A
5:30 PM36 °FSnow flurries. Partly sunny.1 mph87%30.39 "HgN/A
5:00 PM36 °FSnow flurries. Partly sunny.1 mph87%30.39 "HgN/A
4:30 PM34 °FSnow flurries. Partly sunny.6 mph93%30.39 "HgN/A
4:00 PM37 °FPartly sunny.6 mph75%30.36 "HgN/A
3:30 PM36 °FScattered clouds.8 mph87%30.36 "HgN/A
3:00 PM37 °FScattered clouds.8 mph75%30.36 "HgN/A
2:30 PM37 °FPartly sunny.8 mph75%30.36 "HgN/A
2:00 PM37 °FScattered clouds.8 mph75%30.36 "HgN/A
1:30 PM37 °FScattered clouds.6 mph75%30.33 "HgN/A
1:00 PM37 °FScattered clouds.8 mph75%30.33 "HgN/A
12:30 PM36 °FPartly sunny.6 mph81%30.33 "HgN/A
12:00 PM37 °FPartly sunny.8 mph81%30.33 "HgN/A
11:30 AM36 °FPartly sunny.6 mph87%30.33 "HgN/A
11:00 AM36 °FPartly sunny.8 mph81%30.30 "HgN/A
10:30 AM34 °FPartly sunny.1 mph87%30.30 "HgN/A
10:00 AM34 °FPartly sunny.3 mph87%30.30 "HgN/A
9:30 AM34 °FSnow flurries. Partly sunny.3 mph87%30.30 "Hg2 mi
9:00 AM32 °FPartly sunny.3 mph87%30.30 "HgN/A
8:30 AM32 °FPartly sunny.6 mph87%30.27 "HgN/A
8:00 AM32 °FPassing clouds.3 mph87%30.27 "HgN/A
7:30 AM32 °FPassing clouds.3 mph87%30.27 "HgN/A
7:00 AM32 °FPassing clouds.3 mph87%30.27 "HgN/A
Weather by CustomWeather, © 2015

See weather overviewHow to use our weather pages